| time (UTC) | temp F | wind direction | speed MPH | gust MPH | rain 1hr in | rain 24hr in | rain mn in | humidity % | barometer mb |
| 20260831174528 | 66 | 96 | 1.0 | 3.0 | 0.08 | 0.22 | 0.22 | 91 | 1018.4 |
| 20260831173025 | 66 | 96 | 0.0 | 1.0 | 0.08 | 0.21 | 0.21 | 91 | 1018.7 |
| 20260831171524 | 66 | 96 | 0.0 | 2.0 | 0.09 | 0.19 | 0.19 | 90 | 1018.8 |
| 20260831170033 | 67 | 96 | 0.0 | 0.0 | 0.11 | 0.15 | 0.15 | 89 | 1019.0 |
| 20260831164524 | 66 | 96 | 0.0 | 2.0 | 0.14 | 0.14 | 0.14 | 89 | 1019.0 |
| 20260831163023 | 67 | 96 | 0.0 | 3.0 | 0.13 | 0.13 | 0.13 | 87 | 1019.1 |
| 20260831161522 | 68 | 96 | 0.0 | 2.0 | 0.09 | 0.09 | 0.09 | 87 | 1019.2 |
| 20260831160024 | 68 | 96 | 0.0 | 3.0 | 0.04 | 0.04 | 0.04 | 86 | 1019.2 |
| 20260831154522 | 68 | 96 | 0.0 | 2.0 | 0.00 | 0.00 | 0.00 | 85 | 1018.9 |
| 20260831153020 | 68 | 96 | 0.0 | 2.0 | 0.00 | 0.00 | 0.00 | 85 | 1018.8 |
| 20260831151518 | 68 | 96 | 0.0 | 2.0 | 0.00 | 0.00 | 0.00 | 85 | 1018.9 |
| 20260831150017 | 67 | 96 | 2.0 | 4.0 | 0.00 | 0.00 | 0.00 | 86 | 1018.9 |
| 20260831144516 | 67 | 96 | 1.0 | 3.0 | 0.00 | 0.00 | 0.00 | 86 | 1018.8 |
| 20260831143017 | 67 | 96 | 0.0 | 3.0 | 0.00 | 0.00 | 0.00 | 87 | 1018.7 |
| 20260831141513 | 66 | 96 | 1.0 | 3.0 | 0.00 | 0.00 | 0.00 | 87 | 1018.8 |
| 20260831140029 | 66 | 96 | 1.0 | 4.0 | 0.00 | 0.00 | 0.00 | 88 | 1019.0 |
| 20260831134514 | 65 | 96 | 2.0 | 4.0 | 0.00 | 0.00 | 0.00 | 89 | 1018.7 |
| 20260831133012 | 65 | 96 | 0.0 | 3.0 | 0.00 | 0.00 | 0.00 | 90 | 1019.0 |
| 20260831131511 | 64 | 96 | 2.0 | 3.0 | 0.00 | 0.00 | 0.00 | 90 | 1019.1 |
| 20260831130010 | 64 | 96 | 1.0 | 3.0 | 0.00 | 0.00 | 0.00 | 90 | 1019.1 |
| 20260831124510 | 63 | 96 | 1.0 | 3.0 | 0.00 | 0.00 | 0.00 | 91 | 1019.1 |
| 20260831123008 | 63 | 96 | 2.0 | 4.0 | 0.00 | 0.00 | 0.00 | 91 | 1019.0 |
| 20260831121509 | 63 | 96 | 0.0 | 4.0 | 0.00 | 0.00 | 0.00 | 92 | 1019.1 |
| 20260831120014 | 62 | 96 | 1.0 | 4.0 | 0.00 | 0.00 | 0.00 | 92 | 1019.4 |
| 20260831114507 | 62 | 96 | 0.0 | 2.0 | 0.00 | 0.00 | 0.00 | 92 | 1019.4 |
| 20260831113007 | 62 | 96 | 0.0 | 0.0 | 0.00 | 0.00 | 0.00 | 92 | 1019.2 |
| 20260831111505 | 62 | 96 | 0.0 | 0.0 | 0.00 | 0.00 | 0.00 | 92 | 1019.2 |
| 20260831110006 | 61 | 96 | 0.0 | 2.0 | 0.00 | 0.00 | 0.00 | 92 | 1019.0 |
| 20260831104509 | 61 | 96 | 0.0 | 2.0 | 0.00 | 0.00 | 0.00 | 91 | 1018.9 |
| 20260831103004 | 61 | 96 | 0.0 | 4.0 | 0.00 | 0.00 | 0.00 | 91 | 1018.6 |
| 20260831101505 | 62 | 96 | 2.0 | 4.0 | 0.00 | 0.00 | 0.00 | 91 | 1018.6 |
| 20260831100109 | 62 | 96 | 1.0 | 2.0 | 0.00 | 0.00 | 0.00 | 91 | 1018.6 |
| 20260831094559 | 62 | 96 | 0.0 | 2.0 | 0.00 | 0.00 | 0.00 | 90 | 1018.6 |
| 20260831093059 | 62 | 96 | 0.0 | 2.0 | 0.00 | 0.00 | 0.00 | 90 | 1018.9 |
| 20260831091557 | 62 | 96 | 0.0 | 0.0 | 0.00 | 0.00 | 0.00 | 90 | 1018.8 |
| 20260831084600 | 63 | 96 | 0.0 | 1.0 | 0.00 | 0.00 | 0.00 | 89 | 1018.5 |
| 20260831083056 | 63 | 96 | 1.0 | 3.0 | 0.00 | 0.00 | 0.00 | 88 | 1018.6 |
| 20260831081552 | 64 | 96 | 0.0 | 0.0 | 0.00 | 0.00 | 0.00 | 88 | 1018.5 |
| 20260831080050 | 64 | 96 | 0.0 | 2.0 | 0.00 | 0.00 | 0.00 | 88 | 1018.2 |
| 20260831074549 | 65 | 96 | 1.0 | 2.0 | 0.00 | 0.00 | 0.00 | 88 | 1018.4 |
| 20260831073047 | 65 | 96 | 0.0 | 2.0 | 0.00 | 0.00 | 0.00 | 87 | 1018.5 |
| 20260831071546 | 65 | 96 | 0.0 | 2.0 | 0.00 | 0.00 | 0.00 | 87 | 1018.5 |
| 20260831070054 | 65 | 96 | 0.0 | 1.0 | 0.00 | 0.00 | 0.00 | 87 | 1018.5 |
| 20260831064546 | 65 | 96 | 1.0 | 2.0 | 0.00 | 0.00 | 0.00 | 87 | 1018.4 |
| 20260831063049 | 65 | 96 | 1.0 | 2.0 | 0.00 | 0.00 | 0.00 | 86 | 1018.5 |
| 20260831061541 | 65 | 96 | 1.0 | 2.0 | 0.00 | 0.00 | 0.00 | 86 | 1018.8 |
| 20260831060039 | 65 | 96 | 1.0 | 3.0 | 0.00 | 0.00 | 0.00 | 86 | 1019.1 |
| 20260831054542 | 66 | 96 | 0.0 | 1.0 | 0.00 | 0.00 | 0.00 | 86 | 1019.1 |
| 20260831053053 | 66 | 96 | 0.0 | 1.0 | 0.00 | 0.00 | 0.00 | 85 | 1019.2 |
| 20260831051543 | 66 | 96 | 0.0 | 2.0 | 0.00 | 0.00 | 0.00 | 85 | 1019.1 |
| 20260831050043 | 66 | 96 | 2.0 | 3.0 | 0.00 | 0.00 | 0.00 | 85 | 1019.1 |
| 20260831044538 | 66 | 96 | 0.0 | 2.0 | 0.00 | 0.00 | 0.00 | 84 | 1019.1 |
| 20260831043039 | 66 | 96 | 0.0 | 1.0 | 0.00 | 0.00 | 0.00 | 84 | 1019.2 |
| 20260831041532 | 66 | 96 | 0.0 | 0.0 | 0.00 | 0.00 | 0.00 | 84 | 1019.2 |
| 20260831040030 | 67 | 96 | 0.0 | 2.0 | 0.00 | 0.00 | 0.00 | 82 | 1018.9 |
| 20260831034529 | 67 | 96 | 0.0 | 2.0 | 0.00 | 0.00 | 0.00 | 82 | 1019.2 |
| 20260831033055 | 67 | 96 | 0.0 | 3.0 | 0.00 | 0.00 | 0.00 | 81 | 1019.1 |
| 20260831031529 | 68 | 96 | 0.0 | 0.0 | 0.00 | 0.00 | 0.00 | 81 | 1019.2 |
| 20260831030027 | 68 | 96 | 0.0 | 2.0 | 0.00 | 0.00 | 0.00 | 81 | 1019.1 |
| 20260831024530 | 67 | 96 | 0.0 | 4.0 | 0.00 | 0.00 | 0.00 | 82 | 1019.1 |
| 20260831023027 | 67 | 96 | 2.0 | 3.0 | 0.00 | 0.00 | 0.00 | 81 | 1019.3 |
| 20260831021526 | 68 | 96 | 1.0 | 4.0 | 0.00 | 0.00 | 0.00 | 81 | 1019.2 |
| 20260831020025 | 68 | 96 | 1.0 | 3.0 | 0.00 | 0.00 | 0.00 | 80 | 1019.3 |
| 20260831014525 | 68 | 91 | 1.0 | 3.0 | 0.00 | 0.00 | 0.00 | 79 | 1019.2 |
| 20260831013025 | 68 | 91 | 1.0 | 2.0 | 0.00 | 0.00 | 0.00 | 79 | 1019.0 |
| 20260831011524 | 68 | 91 | 1.0 | 5.0 | 0.00 | 0.00 | 0.00 | 79 | 1019.1 |
| 20260831010023 | 68 | 27 | 1.0 | 5.0 | 0.00 | 0.00 | 0.00 | 78 | 1019.0 |
| 20260831004527 | 68 | 334 | 3.0 | 9.0 | 0.00 | 0.00 | 0.00 | 79 | 1019.0 |
| 20260831003032 | 69 | 17 | 0.0 | 1.0 | 0.00 | 0.00 | 0.00 | 81 | 1018.6 |
| 20260831001522 | 69 | 17 | 1.0 | 3.0 | 0.00 | 0.00 | 0.00 | 79 | 1018.3 |
| 20260831000029 | 69 | 17 | 0.0 | 2.0 | 0.00 | 0.00 | 0.00 | 80 | 1018.2 |
| 20260830234534 | 69 | 17 | 1.0 | 4.0 | 0.00 | 0.00 | 0.00 | 79 | 1017.9 |
| 20260830233022 | 70 | 17 | 0.0 | 2.0 | 0.00 | 0.00 | 0.00 | 78 | 1018.0 |
| 20260830231521 | 70 | 17 | 0.0 | 1.0 | 0.00 | 0.00 | 0.00 | 77 | 1017.8 |
| 20260830230020 | 70 | 17 | 0.0 | 0.0 | 0.00 | 0.00 | 0.00 | 76 | 1017.9 |
| 20260830224519 | 71 | 17 | 0.0 | 2.0 | 0.00 | 0.00 | 0.00 | 76 | 1017.8 |
| 20260830223020 | 71 | 17 | 1.0 | 2.0 | 0.00 | 0.00 | 0.00 | 75 | 1017.8 |
| 20260830221534 | 71 | 17 | 0.0 | 2.0 | 0.00 | 0.00 | 0.00 | 75 | 1017.9 |
| 20260830220019 | 71 | 17 | 1.0 | 4.0 | 0.00 | 0.00 | 0.00 | 75 | 1017.7 |
| 20260830214518 | 71 | 17 | 1.0 | 3.0 | 0.00 | 0.00 | 0.00 | 75 | 1017.6 |
| 20260830213017 | 71 | 17 | 1.0 | 3.0 | 0.00 | 0.00 | 0.00 | 74 | 1017.8 |
| 20260830211517 | 72 | 17 | 2.0 | 3.0 | 0.00 | 0.00 | 0.00 | 74 | 1017.8 |
| 20260830210016 | 72 | 18 | 2.0 | 5.0 | 0.00 | 0.00 | 0.00 | 74 | 1018.0 |
| 20260830204521 | 72 | 23 | 1.0 | 4.0 | 0.00 | 0.00 | 0.00 | 73 | 1017.9 |
| 20260830203016 | 73 | 23 | 0.0 | 3.0 | 0.00 | 0.00 | 0.00 | 72 | 1017.9 |
| 20260830201515 | 73 | 23 | 0.0 | 1.0 | 0.00 | 0.00 | 0.00 | 69 | 1017.7 |
| 20260830200014 | 73 | 24 | 1.0 | 4.0 | 0.00 | 0.00 | 0.00 | 68 | 1017.6 |
| 20260830194514 | 73 | 27 | 0.0 | 9.0 | 0.00 | 0.00 | 0.00 | 68 | 1017.5 |
| 20260830193014 | 74 | 28 | 2.0 | 5.0 | 0.00 | 0.00 | 0.00 | 68 | 1017.6 |
| 20260830191514 | 76 | 19 | 1.0 | 2.0 | 0.00 | 0.00 | 0.00 | 68 | 1017.3 |
| 20260830190014 | 77 | 19 | 0.0 | 3.0 | 0.00 | 0.00 | 0.00 | 66 | 1017.3 |
| 20260830184510 | 78 | 19 | 1.0 | 2.0 | 0.00 | 0.00 | 0.00 | 63 | 1017.4 |
| 20260830183011 | 78 | 23 | 0.0 | 3.0 | 0.00 | 0.00 | 0.00 | 64 | 1017.4 |
| 20260830181509 | 79 | 23 | 0.0 | 3.0 | 0.00 | 0.00 | 0.00 | 59 | 1017.5 |
| 20260830180007 | 78 | 23 | 0.0 | 3.0 | 0.00 | 0.00 | 0.00 | 61 | 1017.6 |